Regional Weather Roundup
Issued by NWS

Home | Current Version | Previous Version | Graphics & Text | Print | Product List | Glossary Off
Versions: 1 2 3 4 5 6 7 8 9 10 11 12 13 14 15 16 17 18 19 20 21 22 23 24 25 26 27 28 29 30 31 32 33 34 35 36 37 38 39 40 41 42 43 44 45 46 47 48 49 50

000
ASUS43 KMKX 230614
RWRWI

WISCONSIN REGIONAL WEATHER ROUNDUP
NATIONAL WEATHER SERVICE MILWAUKEE/SULLIVAN WI
100 AM CDT SAT MAY 23 2015

NOTE: "FAIR" INDICATES FEW OR NO CLOUDS BELOW 12,000 FEET WITH NO
SIGNIFICANT WEATHER AND/OR OBSTRUCTIONS TO VISIBILITY.

WIZ001-002-006>008-014>016-023>028-230700-
NORTHWEST WISCONSIN

CITY           SKY/WX    TMP DP  RH WIND       PRES   REMARKS
SUPERIOR ARPT  CLEAR     35  33  94 CALM      30.19S
6HR MIN TEMP:  35; 6HR MAX TEMP:  48;

ASHLAND        CLEAR     47  36  65 W6        30.18S
6HR MIN TEMP:  46; 6HR MAX TEMP:  69;

HAYWARD        CLEAR     43  38  82 CALM      30.21S
6HR MIN TEMP:  43; 6HR MAX TEMP:  71;

SIREN          CLEAR     46  40  80 CALM      30.21S
6HR MIN TEMP:  46; 6HR MAX TEMP:  70;

CUMBERLAND     CLEAR     46  41  81 CALM      30.22S
RICE LAKE      CLEAR     46  43  88 CALM      30.23S
6HR MIN TEMP:  46; 6HR MAX TEMP:  70;

CHETEK         CLEAR     44  43  95 CALM      30.22S
6HR MIN TEMP:  44; 6HR MAX TEMP:  69;

LADYSMITH      CLEAR     45  42  89 CALM      30.24R
6HR MIN TEMP:  43; 6HR MAX TEMP:  68;

EAU CLAIRE     PTCLDY    47  40  76 CALM      30.22R
6HR MIN TEMP:  45; 6HR MAX TEMP:  71;

MENOMONIE      PTCLDY    52  43  70 CALM      30.22S
6HR MIN TEMP:  52; 6HR MAX TEMP:  71;

NEW RICHMOND   PTCLDY    52  40  62 CALM      30.21S
6HR MIN TEMP:  51; 6HR MAX TEMP:  70;

OSCEOLA        PTCLDY    45  41  85 CALM      30.23S
6HR MIN TEMP:  45; 6HR MAX TEMP:  71;

$$

WIZ003>005-009-010-017-018-230700-
NORTH CENTRAL WISCONSIN

CITY           SKY/WX    TMP DP  RH WIND       PRES   REMARKS
MANITOWISH WTR CLEAR     42  36  79 CALM      30.22S
6HR MIN TEMP:  40; 6HR MAX TEMP:  64;

ARBOR VITAE    CLEAR     44  37  76 CALM      30.22F
6HR MIN TEMP:  42; 6HR MAX TEMP:  65;

WOODRUFF       CLEAR     44  37  76 CALM      30.22F
6HR MIN TEMP:  42; 6HR MAX TEMP:  65;

RHINELANDER    CLEAR     39  35  86 CALM      30.24S
6HR MIN TEMP:  39; 6HR MAX TEMP:  65;

EAGLE RIVER    CLEAR     44  32  63 CALM      30.22F
6HR MIN TEMP:  39; 6HR MAX TEMP:  65;

LAND O LAKES   CLEAR     35  32  90 CALM      30.23S
6HR MIN TEMP:  34; 6HR MAX TEMP:  64;

PHILLIPS       CLEAR     41  38  89 CALM      30.22S
6HR MIN TEMP:  41; 6HR MAX TEMP:  67;

TOMAHAWK       CLEAR     36  33  89 CALM      30.24F
6HR MIN TEMP:  36; 6HR MAX TEMP:  67;

MEDFORD        CLEAR     43  37  79 CALM      30.24S
6HR MIN TEMP:  42; 6HR MAX TEMP:  66;

MERRILL        CLEAR     40  38  91 CALM      30.25S
$$

WIZ029-030-035-036-043>047-230700-
CENTRAL WISCONSIN

CITY           SKY/WX    TMP DP  RH WIND       PRES   REMARKS
WAUSAU         CLEAR     47  40  76 CALM      30.22S
6HR MIN TEMP:  47; 6HR MAX TEMP:  68; 6HR PCP: TRACE;

MOSINEE        CLEAR     43  39  87 CALM      30.25S
MARSHFIELD     PTCLDY    51  39  63 CALM      30.23F
6HR MIN TEMP:  50; 6HR MAX TEMP:  69;

STEVENS POINT  PTCLDY    44  38  78 CALM      30.25S
6HR MIN TEMP:  41; 6HR MAX TEMP:  66;

WAUPACA        PTCLDY    50  35  55 CALM      30.26S
6HR MIN TEMP:  50; 6HR MAX TEMP:  71;

WAUTOMA        MOCLDY    46  40  79 CALM      30.27R
6HR MIN TEMP:  46; 6HR MAX TEMP:  72;

WISC RAPIDS    PTCLDY    53  36  52 S7        30.25S
6HR MIN TEMP:  45; 6HR MAX TEMP:  70; 6HR PCP: TRACE;

CAMP DOUGLAS   PTCLDY    43  43 100 E1        30.23R
6HR MIN TEMP:  42; 6HR MAX TEMP:  70;

$$

WIZ011>013-019>022-031-037>040-048>050-230700-
NORTHEAST WISCONSIN

CITY           SKY/WX    TMP DP  RH WIND       PRES   REMARKS
ANTIGO         CLEAR     41  35  79 CALM      30.25S
SHAWANO        CLEAR     48  38  66 CALM      30.26S
6HR MIN TEMP:  45; 6HR MAX TEMP:  70;

OCONTO         CLEAR     38  35  89 CALM      30.26S
6HR MIN TEMP:  38; 6HR MAX TEMP:  57;

STURGEON BAY   CLEAR     46  25  42 S7        30.29F
6HR MIN TEMP:  45; 6HR MAX TEMP:  52;

GREEN BAY      CLEAR     45  32  60 CALM      30.26S
6HR MIN TEMP:  45; 6HR MAX TEMP:  61;

MANITOWOC      PTCLDY    47  27  45 SE3       30.27S
6HR MIN TEMP:  46; 6HR MAX TEMP:  51;

APPLETON       PTCLDY    48  27  43 S7        30.26S
CLINTONVILLE   PTCLDY    46  34  61 CALM      30.26S
OSHKOSH        PTCLDY    48  28  46 S3        30.27R
6HR MIN TEMP:  45; 6HR MAX TEMP:  66;

$$

WIZ032>034-041-042-053>061-230700-
SOUTHWEST WISCONSIN

CITY           SKY/WX    TMP DP  RH WIND       PRES   REMARKS
LA CROSSE      MOCLDY    54  44  69 SE5       30.22S
6HR MIN TEMP:  54; 6HR MAX TEMP:  75;

SPARTA         PTCLDY    43  40  90 CALM      30.24S
6HR MIN TEMP:  42; 6HR MAX TEMP:  70;

VIROQUA        MOCLDY    58  37  44 SE7       30.23S
6HR MIN TEMP:  56; 6HR MAX TEMP:  69;

BOSCOBEL       PTCLDY    50  44  80 CALM      30.24R
6HR MIN TEMP:  50; 6HR MAX TEMP:  73;

PRAIRIE DU CHI MOCLDY    52  44  74 CALM      30.23S
6HR MIN TEMP:  52; 6HR MAX TEMP:  72;

PLATTEVILLE    MOCLDY    57  43  59 SE9       30.25R
6HR MIN TEMP:  57; 6HR MAX TEMP:  71;

$$

WIZ056-057-062-063-064-067-068-230700-
SOUTH CENTRAL WISCONSIN

CITY           SKY/WX    TMP DP  RH WIND       PRES   REMARKS
REEDSBURG      MOCLDY    54  42  62 CALM      30.25R
6HR MIN TEMP:  50; 6HR MAX TEMP:  69;

BARABOO/DELLS  MOCLDY    54  36  50 S9        30.25S
6HR MIN TEMP:  50; 6HR MAX TEMP:  69;

LONE ROCK      CLOUDY    54  44  69 E7        30.25R
6HR MIN TEMP:  52; 6HR MAX TEMP:  73;

MINERAL POINT  CLOUDY    55  37  50 SE9       30.26R
MADISON        CLOUDY    55  31  39 S8        30.27S
6HR MIN TEMP:  55; 6HR MAX TEMP:  70;

MIDDLETON      CLOUDY    56  27  32 SE8       30.27S
6HR MIN TEMP:  56; 6HR MAX TEMP:  71;

WATERTOWN      CLOUDY    47  29  47 CALM      30.27S
6HR MIN TEMP:  47; 6HR MAX TEMP:  65;

MONROE         CLOUDY    52  36  54 SE6       30.27S
JANESVILLE     MOCLDY    50  32  50 SE5       30.28S
$$

WIZ051-052-058>065-066-070>072-230700-
SOUTHEAST WISCONSIN

CITY           SKY/WX    TMP DP  RH WIND       PRES   REMARKS
MILWAUKEE      CLOUDY    49  29  46 S5        30.28F
6HR MIN TEMP:  47; 6HR MAX TEMP:  50;

WAUKESHA       CLOUDY    46  28  49 S3        30.30S
MILWAUKEE/TIMM MOCLDY    46  28  49 S3        30.29S
RACINE         CLOUDY    48  32  53 S3        30.30S
6HR MIN TEMP:  46; 6HR MAX TEMP:  52;

BURLINGTON     MOCLDY    44  32  63 CALM      30.28F
6HR MIN TEMP:  44; 6HR MAX TEMP:  57;

KENOSHA        MOCLDY    46  32  58 S5        30.29S
6HR MIN TEMP:  46; 6HR MAX TEMP:  53;

FOND DU LAC    MOCLDY    45  28  51 S5        30.27S
6HR MIN TEMP:  45; 6HR MAX TEMP:  62;

SHEBOYGAN      PTCLDY    40  30  67 SW5       30.27S
6HR MIN TEMP:  40; 6HR MAX TEMP:  53;

WEST BEND      MOCLDY    46  25  42 S3        30.28S
JUNEAU         MOCLDY    47  31  52 SE3       30.29S
6HR MIN TEMP:  47; 6HR MAX TEMP:  66;

$$

LSZ147-162-230700-
LAKE SUPERIOR

STATION/POSITION TIME  TEMP    WIND        PRES    WAVE
                       AIR SEA DIR/SP/G            HT/PER
                 (UTC) (F)     (DEG/KT/KT) (MB)    (FT/S)
W MID LAKE BUOY  0550   42 36  190/  6/  6   N/A     0
DEVILS ISLAND    0600   42     250/ 10/ 12   N/A
PORT WING        0500   42     220/  2/  4   N/A
SAXON HARBOR     0500   54     200/  5/  8   N/A
$$

LMZ867-665-643>646-230700-
LAKE MICHIGAN

STATION/POSITION TIME  TEMP    WIND        PRES    WAVE
                       AIR SEA DIR/SP/G            HT/PER


USA.gov is the U.S. government's official web portal to all federal, state and local government web resources and services.